Henderson, NV

11:16 PM PST on December 17, 2017 (GMT -0800)
Henderson

Weather History for KHND - February, 2014

Change the Weather History Date:

Saturday, February 1, 2014

  Actual Average (KLAS) Record (KLAS)
Temperature  
Mean Temperature 43 °F -  
Max Temperature 52 °F 59 °F 81 °F (2003)
Min Temperature 32 °F 36 °F 17 °F (1937)
Degree Days  
Heating Degree Days 22    
Moisture  
Dew Point 14 °F    
Average Humidity 31    
Maximum Humidity 44    
Minimum Humidity 19    
Precipitation  
Precipitation 0.00 in - - ()
Sea Level Pressure  
Sea Level Pressure 30.05 in    
Wind  
Wind Speed 8 mph (NNE)    
Max Wind Speed 17 mph    
Max Gust Speed 23 mph    
Visibility 10 miles    
Events      
Averages and records for this station are not official NWS values.
T = Trace of Precipitation, MM = Missing Value Source: NWS Daily Summary

Daily Weather History Graph

Daily Weather History Graph

Search for Another Location

Airport or City:

Trip Planner

Search our weather history database for the weather conditions in past years. The results will help you decide how hot, cold, wet, or windy it might be!

Date:

Astronomy

Feb. 01, 2014 Rise Set
Actual Time 6:41 AM PST 5:07 PM PST
Civil Twilight 6:14 AM PST 5:34 PM PST
Nautical Twilight 5:43 AM PST 6:05 PM PST
Astronomical Twilight 5:13 AM PST 6:35 PM PST
Moon 7:38 AM PST (2/1) 7:41 PM PST (2/1)
Length of Visible Light 11h 20m
Length of Day
10h 26m
Waxing Crescent, 5% of the Moon is Illuminated
Feb 1
Waxing Crescent
Feb 6
First Quarter
Feb 14
Full
Feb 22
Last Quarter
Mar 1
New

Hourly Weather History & Observations

Time (PST) Temp. Windchill Dew Point Humidity Pressure Visibility Wind Dir Wind Speed Gust Speed Precip Events Conditions
12:56 AM 45.9 °F 42.9 °F 21.0 °F 37% 29.93 in 10.0 mi NE 5.8 mph - N/A   Clear
1:56 AM 43.9 °F 39.3 °F 21.0 °F 40% 29.94 in 10.0 mi NNE 8.1 mph - N/A   Clear
2:56 AM 41.9 °F 35.4 °F 18.1 °F 38% 29.96 in 10.0 mi NNW 11.5 mph - N/A   Clear
3:56 AM 41.0 °F 35.8 °F 17.1 °F 38% 29.96 in 10.0 mi NE 8.1 mph 16.1 mph N/A   Clear
4:56 AM 41.0 °F 35.8 °F 14.0 °F 33% 29.98 in 10.0 mi North 8.1 mph - N/A   Clear
5:56 AM 39.9 °F 33.4 °F 13.1 °F 33% 30.00 in 10.0 mi North 10.4 mph 23.0 mph N/A   Clear
6:56 AM 38.8 °F 34.6 °F 13.1 °F 35% 30.04 in 10.0 mi ENE 5.8 mph - N/A   Clear
7:56 AM 41.9 °F 38.2 °F 15.1 °F 34% 30.06 in 10.0 mi East 5.8 mph - N/A   Clear
8:56 AM 43.9 °F 38.8 °F 15.1 °F 31% 30.08 in 10.0 mi NE 9.2 mph - N/A   Clear
9:56 AM 45.9 °F 39.4 °F 13.1 °F 27% 30.09 in 10.0 mi NNE 15.0 mph - N/A   Clear
10:56 AM 47.8 °F - 13.1 °F 25% 30.08 in 10.0 mi North 17.3 mph 21.9 mph N/A   Clear
11:56 AM 48.9 °F - 13.1 °F 24% 30.06 in 10.0 mi NNE 12.7 mph - N/A   Clear
12:56 PM 50.0 °F - 13.1 °F 23% 30.04 in 10.0 mi NNW 6.9 mph - N/A   Clear
1:56 PM 50.9 °F - 12.0 °F 21% 30.03 in 10.0 mi NNE 13.8 mph - N/A   Clear
2:56 PM 52.0 °F - 10.0 °F 19% 30.04 in 10.0 mi North 11.5 mph - N/A   Clear
3:56 PM 52.0 °F - 10.0 °F 19% 30.04 in 10.0 mi NNE 11.5 mph 18.4 mph N/A   Clear
4:56 PM 48.9 °F - 8.1 °F 19% 30.06 in 10.0 mi NNE 10.4 mph - N/A   Clear
5:56 PM 45.9 °F 42.9 °F 10.0 °F 23% 30.07 in 10.0 mi NNE 5.8 mph - N/A   Clear
6:56 PM 43.9 °F 42.3 °F 11.1 °F 26% 30.09 in 10.0 mi North 3.5 mph - N/A   Clear
7:56 PM 38.8 °F 34.6 °F 12.0 °F 33% 30.11 in 10.0 mi SSE 5.8 mph - N/A   Clear
8:56 PM 37.9 °F - 13.1 °F 36% 30.12 in 10.0 mi Calm Calm - N/A   Clear
9:56 PM 36.0 °F - 14.0 °F 41% 30.13 in 10.0 mi Calm Calm - N/A   Clear
10:56 PM 34.9 °F 29.9 °F 13.1 °F 41% 30.12 in 10.0 mi SSE 5.8 mph - N/A   Clear
11:56 PM 32.9 °F 25.9 °F 13.1 °F 44% 30.13 in 10.0 mi SSE 8.1 mph - N/A   Clear